Location: NJAA Observatory
(40.6819°N, 74.8979°W)
Time: 14:15:33
(UTC-04:00)

Iridium 84 - Visible Passes

Search period start: 23 July 2014 00:00
Search period end: 02 August 2014 00:00
Orbit: 776 x 779 km, 86.4° (Epoch: 23 July)

Date Brightness Start Highest point End Pass type
(mag) Time Alt. Az. Time Alt. Az. Time Alt. Az.
23 Jul 6.6 21:58:36 10° NNW 22:03:32 44° W 22:08:26 10° SSW visible
24 Jul 5.6 21:24:52 10° N 21:30:06 83° W 21:35:18 10° S visible
25 Jul 5.7 20:51:26 10° N 20:56:33 54° E 21:01:37 10° SSE visible
25 Jul 8.1 22:33:30 10° NW 22:36:46 17° W 22:40:01 10° WSW visible
26 Jul 7.3 21:59:00 10° NNW 22:03:31 31° W 22:08:01 10° SW visible
27 Jul 6.2 21:25:04 10° N 21:30:10 57° W 21:35:14 10° SSW visible
28 Jul 5.5 20:51:27 10° N 20:56:41 78° E 21:01:53 10° S visible
28 Jul 8.4 22:34:57 10° WNW 22:36:38 12° WNW 22:38:18 10° W visible
29 Jul 7.9 21:59:35 10° NNW 22:03:28 22° W 22:07:20 10° SW visible
30 Jul 7.0 21:25:22 10° NNW 21:30:11 39° W 21:34:58 10° SSW visible
31 Jul 5.8 20:51:34 10° N 20:56:46 73° W 21:01:56 10° S visible
01 Aug 8.3 22:00:30 10° NW 22:03:21 15° WNW 22:06:12 10° WSW visible
